Regional Weather Roundup
Issued by NWS

Home | Current Version | Previous Version | Graphics & Text | Print | Product List | Glossary On
Versions: 1 2 3 4 5 6 7 8 9 10 11 12 13 14 15 16 17 18 19 20 21 22 23 24 25 26 27 28 29 30 31 32 33 34 35 36 37 38 39 40 41 42 43 44 45 46 47 48 49 50
000
ASUS43 KIND 241309
RWRIN

WEATHER ROUNDUP FOR INDIANA
NATIONAL WEATHER SERVICE INDIANAPOLIS IN
800 AM EST FRI NOV 24 2017

NOTE: "FAIR" INDICATES FEW OR NO CLOUDS BELOW 12,000 FEET WITH NO
SIGNIFICANT WEATHER AND/OR OBSTRUCTIONS TO VISIBILITY.

* - STATION DOES NOT REPORT WEATHER SUCH AS PRECIPITATION OR FOG.

+ - STATION NOT QUALITY CONTROLLED BY THE NATIONAL WEATHER SERVICE.
    USE DATA WITH CAUTION...ESPECIALLY DEWPOINT AND RELATIVE
    HUMIDITY OBSERVATIONS.

INZ001>003-010>013-019-020-241400-
NORTHWEST INDIANA

CITY           SKY/WX    TMP DP  RH WIND       PRES   REMARKS
GARY /AIRPORT/ PTCLDY    37  27  65 S9        29.80F WCI  31
KNOX *+        CLEAR     32  27  80 S8        29.84F WCI  25
LA PORTE +     PTCLDY    31  26  79 S8        29.82F WCI  24
MICHIGAN CITY+ CLEAR     36  27  69 S10       29.80F WCI  28
MONTICELLO +   CLOUDY    33  24  69 S8        29.87S WCI  26
RENSSELAER +   CLEAR     32  27  80 S8        29.85F WCI  25
VALPARAISO     CLEAR     33  26  75 S8        29.82F WCI  26

$$

LMZ046-743>745-241400-
SOUTHERN LAKE MICHIGAN

STATION/POSITION TIME  TEMP    WIND        PRES    WAVE
                       AIR SEA DIR/SP/G            HT
                 (UTC) (F)     (DEG/KT/KT) (MB)    (FT)
BURNS HARBOR     1240   36     180/ 11/ 18 1009.5F
MICHIGAN CITY    1240   35     150/ 17/ 20   N/A

$$

INZ004-005-014>016-021>024-241400-
NORTH CENTRAL INDIANA

CITY           SKY/WX    TMP DP  RH WIND       PRES   REMARKS
ELKHART        CLEAR     32  25  74 S6        29.85S WCI  26
GOSHEN         CLEAR     34  23  64 S10       29.85S WCI  26
LOGANSPORT +   CLOUDY    32  27  80 S7        29.89S WCI  26
PERU/GRISSOM   CLEAR     32  26  78 S8        29.87F WCI  25
ROCHESTER +    CLEAR     36  28  75 S7        29.87S WCI  30
SOUTH BEND     CLEAR     32  26  78 S9        29.83F WCI  24
WARSAW +       CLEAR     32  27  80 S3        29.87S

$$

INZ006>009-017-018-025>027-241400-
NORTHEAST INDIANA

CITY           SKY/WX    TMP DP  RH WIND       PRES   REMARKS
AUBURN +       CLEAR     32  23  69 S5        29.88S WCI  27
FORT WAYNE     PTCLDY    32  25  75 S8        29.89F WCI  25
HUNTINGTON +   CLEAR     32  24  71 S5        29.89S WCI  27
KENDALLVILLE + CLEAR     32  25  74 SW9       29.87R WCI  24

$$

INZ028-029-035-036-043>045-051>053-241400-
WEST CENTRAL INDIANA

CITY           SKY/WX    TMP DP  RH WIND       PRES   REMARKS
CRAWFORDSVL +  CLEAR     30  25  80 MISG      29.90R
GREENCASTLE +  CLOUDY    30  23  74 S5        29.91S WCI  25
LAFAYETTE      PTCLDY    33  26  75 S5        29.88F WCI  29
TERRE HAUTE    CLEAR     31  23  72 S5        29.92S WCI  26

$$

INZ030>032-037>040-046>048-054>057-064-065-241400-
CENTRAL INDIANA

CITY           SKY/WX    TMP DP  RH WIND       PRES   REMARKS
CP ATTERBURY + CLOUDY    28  23  80 CALM      29.95S
COLUMBUS       CLEAR     27  21  80 CALM      29.96R
FRANKFORT +    PTCLDY    34  28  79 S6        29.90S WCI  29
GREENWOOD *+   CLOUDY    33  26  75 S7        29.94S WCI  27
INDIANAPOLIS   CLOUDY    32  23  69 S8        29.92S WCI  25
-EAGLE CREEK   CLOUDY    30  23  75 CALM      29.91S
KOKOMO +       CLEAR     32  26  78 S8        29.90S WCI  25
MARION +       CLEAR     32  26  78 S8        29.91S WCI  24
MT COMFORT *+  CLEAR     30  27  86 S7        29.92S WCI  23
SHELBYVILLE    CLOUDY    32  22  66 S7        29.94R WCI  26
ZIONSVILLE +   CLEAR     30  24  77 S6        29.91S WCI  24

$$

INZ033-034-041-042-049-050-058-059-241400-
EAST CENTRAL INDIANA

CITY           SKY/WX    TMP DP  RH WIND       PRES   REMARKS
MUNCIE         CLEAR     35  23  61 S8        29.91R WCI  29
RICHMOND +     CLOUDY    28  27  93 S6        29.95R WCI  22

$$

INZ060-061-067>069-081>083-085>088-241400-
SOUTHWEST INDIANA

CITY           SKY/WX    TMP DP  RH WIND       PRES   REMARKS
EVANSVILLE     CLOUDY    30  26  85 CALM      29.97S
HUNTINGBURG +  CLOUDY    35  24  64 S5        29.98R WCI  31
WASHINGTON +   CLOUDY    31  24  74 S5        29.95S WCI  27

$$

INZ062-063-066-070>080-084-089>092-241400-
SOUTH CENTRAL AND SOUTHEAST INDIANA

CITY           SKY/WX    TMP DP  RH WIND       PRES   REMARKS
BEDFORD +      CLOUDY    30  23  74 S5        29.95S WCI  25
BLOOMINGTON    CLOUDY    29  21  72 SE5       29.93S WCI  24
MADISON *+     CLOUDY    32  28  86 S5        30.00R WCI  27
NORTH VERNON + CLEAR     32  23  69 S8        29.97R WCI  25
SEYMOUR +      CLOUDY    30  25  80 CALM      29.97S

$$





USA.gov is the U.S. government's official web portal to all federal, state and local government web resources and services.